owner,sensor,date,latitude,longitude,vertical_datum,sea_water_practical_salinity,qcFlag 
TABS,ioos:station:wmo:42044:1,2005-05-17T12:00:00Z,26.1914,-97.0507,2.0,34.06,11111222 
TABS,ioos:station:wmo:42044:1,2005-05-17T12:30:00Z,26.1914,-97.0507,2.0,34.05,11111222 
TABS,ioos:station:wmo:42044:1,2005-05-17T13:00:00Z,26.1914,-97.0507,2.0,34.07,11111222 
TABS,ioos:station:wmo:42044:1,2005-05-17T13:30:00Z,26.1914,-97.0507,2.0,34.05,11111222 
TABS,ioos:station:wmo:42044:1,2005-05-17T14:00:00Z,26.1914,-97.0507,2.0,34.06,11111222 
TABS,ioos:station:wmo:42044:1,2005-05-17T14:30:00Z,26.1914,-97.0507,2.0,34.05,11111222 
TABS,ioos:station:wmo:42044:1,2005-05-17T15:00:00Z,26.1914,-97.0507,2.0,34.04,11111222 
TABS,ioos:station:wmo:42044:1,2005-05-17T15:30:00Z,26.1914,-97.0507,2.0,34.05,11111222 
TABS,ioos:station:wmo:42044:1,2005-05-17T16:00:00Z,26.1914,-97.0507,2.0,34.03,11111222 
TABS,ioos:station:wmo:42044:1,2005-05-17T16:30:00Z,26.1914,-97.0507,2.0,34.04,11111222 
TABS,ioos:station:wmo:42044:1,2005-05-17T17:00:00Z,26.1914,-97.0507,2.0,34.05,11111222 
TABS,ioos:station:wmo:42044:1,2005-05-17T17:30:00Z,26.1914,-97.0507,2.0,34.04,11111222 
TABS,ioos:station:wmo:42044:1,2005-05-17T18:00:00Z,26.1914,-97.0507,2.0,34.03,11111222 
TABS,ioos:station:wmo:42044:1,2005-05-17T18:30:00Z,26.1914,-97.0507,2.0,34.02,11111222 
TABS,ioos:station:wmo:42044:1,2005-05-17T19:00:00Z,26.1914,-97.0507,2.0,34.05,11111222 
TABS,ioos:station:wmo:42044:1,2005-05-17T19:30:00Z,26.1914,-97.0507,2.0,34.04,11111222 
TABS,ioos:station:wmo:42044:1,2005-05-17T20:00:00Z,26.1914,-97.0507,2.0,34.07,11111222 
TABS,ioos:station:wmo:42044:1,2005-05-17T20:30:00Z,26.1914,-97.0507,2.0,34.08,11111222 
TABS,ioos:station:wmo:42044:1,2005-05-17T21:00:00Z,26.1914,-97.0507,2.0,34.05,11111222 
TABS,ioos:station:wmo:42044:1,2005-05-17T21:30:00Z,26.1914,-97.0507,2.0,34.09,11111222 
TABS,ioos:station:wmo:42044:1,2005-05-17T22:00:00Z,26.1914,-97.0507,2.0,34.09,11111222 
TABS,ioos:station:wmo:42044:1,2005-05-17T22:30:00Z,26.1914,-97.0507,2.0,34.09,11111222 
TABS,ioos:station:wmo:42044:1,2005-05-17T23:00:00Z,26.1914,-97.0507,2.0,34.08,11111222 
TABS,ioos:station:wmo:42044:1,2005-05-17T23:30:00Z,26.1914,-97.0507,2.0,34.08,11111222 
TABS,ioos:station:wmo:42044:1,2005-05-18T00:00:00Z,26.1914,-97.0507,2.0,34.08,11111222 
TABS,ioos:station:wmo:42044:1,2005-05-18T00:30:00Z,26.1914,-97.0507,2.0,34.09,11111222 
TABS,ioos:station:wmo:42044:1,2005-05-18T01:00:00Z,26.1914,-97.0507,2.0,34.08,11111222 
TABS,ioos:station:wmo:42044:1,2005-05-18T01:30:00Z,26.1914,-97.0507,2.0,34.1,11111222 
TABS,ioos:station:wmo:42044:1,2005-05-18T02:00:00Z,26.1914,-97.0507,2.0,34.11,11111222 
TABS,ioos:station:wmo:42044:1,2005-05-18T02:30:00Z,26.1914,-97.0507,2.0,34.1,11111222 
TABS,ioos:station:wmo:42044:1,2005-05-18T03:00:00Z,26.1914,-97.0507,2.0,34.11,11111222 
TABS,ioos:station:wmo:42044:1,2005-05-18T03:30:00Z,26.1914,-97.0507,2.0,34.12,11111222 
TABS,ioos:station:wmo:42044:1,2005-05-18T04:00:00Z,26.1914,-97.0507,2.0,34.13,11111222 
TABS,ioos:station:wmo:42044:1,2005-05-18T04:30:00Z,26.1914,-97.0507,2.0,34.13,11111222 
TABS,ioos:station:wmo:42044:1,2005-05-18T05:00:00Z,26.1914,-97.0507,2.0,34.13,11111222 
TABS,ioos:station:wmo:42044:1,2005-05-18T05:30:00Z,26.1914,-97.0507,2.0,34.13,11111222 
TABS,ioos:station:wmo:42044:1,2005-05-18T06:00:00Z,26.1914,-97.0507,2.0,34.13,11111222 
TABS,ioos:station:wmo:42044:1,2005-05-18T06:30:00Z,26.1914,-97.0507,2.0,34.12,11111222 
TABS,ioos:station:wmo:42044:1,2005-05-18T07:00:00Z,26.1914,-97.0507,2.0,34.12,11111222 
TABS,ioos:station:wmo:42044:1,2005-05-18T07:30:00Z,26.1914,-97.0507,2.0,34.12,11111222 
TABS,ioos:station:wmo:42044:1,2005-05-18T08:00:00Z,26.1914,-97.0507,2.0,34.1,11111222 
TABS,ioos:station:wmo:42044:1,2005-05-18T08:30:00Z,26.1914,-97.0507,2.0,34.11,11111222 
TABS,ioos:station:wmo:42044:1,2005-05-18T09:00:00Z,26.1914,-97.0507,2.0,34.1,11111222 
TABS,ioos:station:wmo:42044:1,2005-05-18T09:30:00Z,26.1914,-97.0507,2.0,34.1,11111222 
TABS,ioos:station:wmo:42044:1,2005-05-18T10:00:00Z,26.1914,-97.0507,2.0,34.1,11111222 
TABS,ioos:station:wmo:42044:1,2005-05-18T10:30:00Z,26.1914,-97.0507,2.0,34.09,11111222 
TABS,ioos:station:wmo:42044:1,2005-05-18T11:00:00Z,26.1914,-97.0507,2.0,34.1,11111222 
TABS,ioos:station:wmo:42044:1,2005-05-18T11:30:00Z,26.1914,-97.0507,2.0,34.09,11111222 
TABS,ioos:station:wmo:42044:1,2005-05-18T12:00:00Z,26.1914,-97.0507,2.0,34.08,11111222 
TABS,ioos:station:wmo:42044:1,2005-05-18T12:30:00Z,26.1914,-97.0507,2.0,34.07,11111222 
TABS,ioos:station:wmo:42044:1,2005-05-18T13:00:00Z,26.1914,-97.0507,2.0,34.07,11111222 
TABS,ioos:station:wmo:42044:1,2005-05-18T13:30:00Z,26.1914,-97.0507,2.0,34.07,11111222 
TABS,ioos:station:wmo:42044:1,2005-05-18T14:00:00Z,26.1914,-97.0507,2.0,34.07,11111222 
TABS,ioos:station:wmo:42044:1,2005-05-18T14:30:00Z,26.1914,-97.0507,2.0,34.06,11111222 
TABS,ioos:station:wmo:42044:1,2005-05-18T15:00:00Z,26.1914,-97.0507,2.0,34.06,11111222 
TABS,ioos:station:wmo:42044:1,2005-05-18T15:30:00Z,26.1914,-97.0507,2.0,34.05,11111222 
TABS,ioos:station:wmo:42044:1,2005-05-18T16:00:00Z,26.1914,-97.0507,2.0,34.08,11111222 
TABS,ioos:station:wmo:42044:1,2005-05-18T16:30:00Z,26.1914,-97.0507,2.0,34.04,11111222 
TABS,ioos:station:wmo:42044:1,2005-05-18T17:00:00Z,26.1914,-97.0507,2.0,34.06,11111222 
TABS,ioos:station:wmo:42044:1,2005-05-18T17:30:00Z,26.1914,-97.0507,2.0,34.05,11111222 
TABS,ioos:station:wmo:42044:1,2005-05-18T18:00:00Z,26.1914,-97.0507,2.0,34.09,11111222 
TABS,ioos:station:wmo:42044:1,2005-05-18T18:30:00Z,26.1914,-97.0507,2.0,34.05,11111222 
TABS,ioos:station:wmo:42044:1,2005-05-18T19:00:00Z,26.1914,-97.0507,2.0,34.02,11111222 
TABS,ioos:station:wmo:42044:1,2005-05-18T19:30:00Z,26.1914,-97.0507,2.0,34.08,11111222 
TABS,ioos:station:wmo:42044:1,2005-05-18T20:00:00Z,26.1914,-97.0507,2.0,34.08,11111222 
TABS,ioos:station:wmo:42044:1,2005-05-18T20:30:00Z,26.1914,-97.0507,2.0,34.11,11111222 
TABS,ioos:station:wmo:42044:1,2005-05-18T21:00:00Z,26.1914,-97.0507,2.0,34.09,11111222 
TABS,ioos:station:wmo:42044:1,2005-05-18T21:30:00Z,26.1914,-97.0507,2.0,34.1,11111222 
TABS,ioos:station:wmo:42044:1,2005-05-18T22:00:00Z,26.1914,-97.0507,2.0,34.1,11111222 
TABS,ioos:station:wmo:42044:1,2005-05-18T22:30:00Z,26.1914,-97.0507,2.0,34.12,11111222 
TABS,ioos:station:wmo:42044:1,2005-05-18T23:00:00Z,26.1914,-97.0507,2.0,34.12,11111222 
TABS,ioos:station:wmo:42044:1,2005-05-18T23:30:00Z,26.1914,-97.0507,2.0,34.12,11111222 
TABS,ioos:station:wmo:42044:1,2005-05-19T00:00:00Z,26.1914,-97.0507,2.0,34.11,11111222 
TABS,ioos:station:wmo:42044:1,2005-05-19T00:30:00Z,26.1914,-97.0507,2.0,34.14,11111222 
TABS,ioos:station:wmo:42044:1,2005-05-19T01:00:00Z,26.1914,-97.0507,2.0,34.11,11111222 
TABS,ioos:station:wmo:42044:1,2005-05-19T01:30:00Z,26.1914,-97.0507,2.0,34.11,11111222 
TABS,ioos:station:wmo:42044:1,2005-05-19T02:00:00Z,26.1914,-97.0507,2.0,34.13,11111222 
TABS,ioos:station:wmo:42044:1,2005-05-19T02:30:00Z,26.1914,-97.0507,2.0,34.12,11111222 
TABS,ioos:station:wmo:42044:1,2005-05-19T03:00:00Z,26.1914,-97.0507,2.0,34.11,11111222 
TABS,ioos:station:wmo:42044:1,2005-05-19T03:30:00Z,26.1914,-97.0507,2.0,34.12,11111222 
TABS,ioos:station:wmo:42044:1,2005-05-19T04:00:00Z,26.1914,-97.0507,2.0,34.12,11111222 
TABS,ioos:station:wmo:42044:1,2005-05-19T04:30:00Z,26.1914,-97.0507,2.0,34.12,11111222 
TABS,ioos:station:wmo:42044:1,2005-05-19T05:00:00Z,26.1914,-97.0507,2.0,34.14,11111222 
TABS,ioos:station:wmo:42044:1,2005-05-19T05:30:00Z,26.1914,-97.0507,2.0,34.13,11111222 
TABS,ioos:station:wmo:42044:1,2005-05-19T06:00:00Z,26.1914,-97.0507,2.0,34.12,11111222 
TABS,ioos:station:wmo:42044:1,2005-05-19T06:30:00Z,26.1914,-97.0507,2.0,34.12,11111222 
TABS,ioos:station:wmo:42044:1,2005-05-19T07:00:00Z,26.1914,-97.0507,2.0,34.12,11111222 
TABS,ioos:station:wmo:42044:1,2005-05-19T07:30:00Z,26.1914,-97.0507,2.0,34.13,11111222 
TABS,ioos:station:wmo:42044:1,2005-05-19T08:00:00Z,26.1914,-97.0507,2.0,34.13,11111222 
TABS,ioos:station:wmo:42044:1,2005-05-19T08:30:00Z,26.1914,-97.0507,2.0,34.12,11111222 
TABS,ioos:station:wmo:42044:1,2005-05-19T09:00:00Z,26.1914,-97.0507,2.0,34.12,11111222 
TABS,ioos:station:wmo:42044:1,2005-05-19T09:30:00Z,26.1914,-97.0507,2.0,34.13,11111222 
TABS,ioos:station:wmo:42044:1,2005-05-19T10:00:00Z,26.1914,-97.0507,2.0,34.13,11111222 
TABS,ioos:station:wmo:42044:1,2005-05-19T10:30:00Z,26.1914,-97.0507,2.0,34.13,11111222 
TABS,ioos:station:wmo:42044:1,2005-05-19T11:00:00Z,26.1914,-97.0507,2.0,34.13,11111222 
TABS,ioos:station:wmo:42044:1,2005-05-19T11:30:00Z,26.1914,-97.0507,2.0,34.13,11111222 
TABS,ioos:station:wmo:42044:1,2005-05-19T12:00:00Z,26.1914,-97.0507,2.0,34.13,11111222 
TABS,ioos:station:wmo:42044:1,2005-05-19T12:30:00Z,26.1914,-97.0507,2.0,34.13,11111222 
TABS,ioos:station:wmo:42044:1,2005-05-19T13:00:00Z,26.1914,-97.0507,2.0,34.13,11111222 
TABS,ioos:station:wmo:42044:1,2005-05-19T13:30:00Z,26.1914,-97.0507,2.0,34.12,11111222 
TABS,ioos:station:wmo:42044:1,2005-05-19T14:00:00Z,26.1914,-97.0507,2.0,34.13,11111222 
TABS,ioos:station:wmo:42044:1,2005-05-19T14:30:00Z,26.1914,-97.0507,2.0,34.13,11111222 
TABS,ioos:station:wmo:42044:1,2005-05-19T15:00:00Z,26.1914,-97.0507,2.0,34.12,11111222 
TABS,ioos:station:wmo:42044:1,2005-05-19T15:30:00Z,26.1914,-97.0507,2.0,34.11,11111222 
TABS,ioos:station:wmo:42044:1,2005-05-19T16:00:00Z,26.1914,-97.0507,2.0,34.13,11111222 
TABS,ioos:station:wmo:42044:1,2005-05-19T16:30:00Z,26.1914,-97.0507,2.0,34.13,11111222 
TABS,ioos:station:wmo:42044:1,2005-05-19T17:00:00Z,26.1914,-97.0507,2.0,34.12,11111222 
TABS,ioos:station:wmo:42044:1,2005-05-19T17:30:00Z,26.1914,-97.0507,2.0,34.15,11111222 
TABS,ioos:station:wmo:42044:1,2005-05-19T18:00:00Z,26.1914,-97.0507,2.0,34.11,11111222 
TABS,ioos:station:wmo:42044:1,2005-05-19T18:30:00Z,26.1914,-97.0507,2.0,34.16,11111222 
TABS,ioos:station:wmo:42044:1,2005-05-19T19:00:00Z,26.1914,-97.0507,2.0,34.09,11111222 
TABS,ioos:station:wmo:42044:1,2005-05-19T19:30:00Z,26.1914,-97.0507,2.0,34.12,11111222 
TABS,ioos:station:wmo:42044:1,2005-05-19T20:00:00Z,26.1914,-97.0507,2.0,34.09,11111222 
TABS,ioos:station:wmo:42044:1,2005-05-19T20:30:00Z,26.1914,-97.0507,2.0,34.09,11111222 
TABS,ioos:station:wmo:42044:1,2005-05-19T21:00:00Z,26.1914,-97.0507,2.0,34.13,11111222 
TABS,ioos:station:wmo:42044:1,2005-05-19T21:30:00Z,26.1914,-97.0507,2.0,34.09,11111222 
TABS,ioos:station:wmo:42044:1,2005-05-19T22:00:00Z,26.1914,-97.0507,2.0,34.11,11111222 
TABS,ioos:station:wmo:42044:1,2005-05-19T22:30:00Z,26.1914,-97.0507,2.0,34.12,11111222 
TABS,ioos:station:wmo:42044:1,2005-05-19T23:00:00Z,26.1914,-97.0507,2.0,34.12,11111222 
TABS,ioos:station:wmo:42044:1,2005-05-19T23:30:00Z,26.1914,-97.0507,2.0,34.15,11111222 
TABS,ioos:station:wmo:42044:1,2005-05-20T00:00:00Z,26.1914,-97.0507,2.0,34.13,11111222 
TABS,ioos:station:wmo:42044:1,2005-05-20T00:30:00Z,26.1914,-97.0507,2.0,34.14,11111222 
TABS,ioos:station:wmo:42044:1,2005-05-20T01:00:00Z,26.1914,-97.0507,2.0,34.16,11111222 
TABS,ioos:station:wmo:42044:1,2005-05-20T01:30:00Z,26.1914,-97.0507,2.0,34.17,11111222 
TABS,ioos:station:wmo:42044:1,2005-05-20T02:00:00Z,26.1914,-97.0507,2.0,34.19,11111222 
TABS,ioos:station:wmo:42044:1,2005-05-20T02:30:00Z,26.1914,-97.0507,2.0,34.2,11111222 
TABS,ioos:station:wmo:42044:1,2005-05-20T03:00:00Z,26.1914,-97.0507,2.0,34.22,11111222 
TABS,ioos:station:wmo:42044:1,2005-05-20T03:30:00Z,26.1914,-97.0507,2.0,34.2,11111222 
TABS,ioos:station:wmo:42044:1,2005-05-20T04:00:00Z,26.1914,-97.0507,2.0,34.22,11111222 
TABS,ioos:station:wmo:42044:1,2005-05-20T04:30:00Z,26.1914,-97.0507,2.0,34.21,11111222 
TABS,ioos:station:wmo:42044:1,2005-05-20T05:00:00Z,26.1914,-97.0507,2.0,34.23,11111222 
TABS,ioos:station:wmo:42044:1,2005-05-20T05:30:00Z,26.1914,-97.0507,2.0,34.24,11111222 
TABS,ioos:station:wmo:42044:1,2005-05-20T06:00:00Z,26.1914,-97.0507,2.0,34.24,11111222 
TABS,ioos:station:wmo:42044:1,2005-05-20T06:30:00Z,26.1914,-97.0507,2.0,34.27,11111222 
TABS,ioos:station:wmo:42044:1,2005-05-20T07:00:00Z,26.1914,-97.0507,2.0,34.28,11111222 
TABS,ioos:station:wmo:42044:1,2005-05-20T07:30:00Z,26.1914,-97.0507,2.0,34.27,11111222 
TABS,ioos:station:wmo:42044:1,2005-05-20T08:00:00Z,26.1914,-97.0507,2.0,34.26,11111222 
TABS,ioos:station:wmo:42044:1,2005-05-20T08:30:00Z,26.1914,-97.0507,2.0,34.27,11111222 
TABS,ioos:station:wmo:42044:1,2005-05-20T09:00:00Z,26.1914,-97.0507,2.0,34.28,11111222 
TABS,ioos:station:wmo:42044:1,2005-05-20T09:30:00Z,26.1914,-97.0507,2.0,34.31,11111222 
TABS,ioos:station:wmo:42044:1,2005-05-20T10:00:00Z,26.1914,-97.0507,2.0,34.31,11111222 
TABS,ioos:station:wmo:42044:1,2005-05-20T10:30:00Z,26.1914,-97.0507,2.0,34.27,11111222 
TABS,ioos:station:wmo:42044:1,2005-05-20T11:00:00Z,26.1914,-97.0507,2.0,34.29,11111222 
TABS,ioos:station:wmo:42044:1,2005-05-20T11:30:00Z,26.1914,-97.0507,2.0,34.29,11111222 
TABS,ioos:station:wmo:42044:1,2005-05-20T12:00:00Z,26.1914,-97.0507,2.0,34.29,11111222 
TABS,ioos:station:wmo:42044:1,2005-05-20T12:30:00Z,26.1914,-97.0507,2.0,34.31,11111222 
TABS,ioos:station:wmo:42044:1,2005-05-20T13:00:00Z,26.1914,-97.0507,2.0,34.32,11111222 
TABS,ioos:station:wmo:42044:1,2005-05-20T13:30:00Z,26.1914,-97.0507,2.0,34.34,11111222 
TABS,ioos:station:wmo:42044:1,2005-05-20T14:00:00Z,26.1914,-97.0507,2.0,34.36,11111222 
TABS,ioos:station:wmo:42044:1,2005-05-20T14:30:00Z,26.1914,-97.0507,2.0,34.39,11111222 
TABS,ioos:station:wmo:42044:1,2005-05-20T15:00:00Z,26.1914,-97.0507,2.0,34.41,11111222 
TABS,ioos:station:wmo:42044:1,2005-05-20T15:30:00Z,26.1914,-97.0507,2.0,34.43,11111222 
TABS,ioos:station:wmo:42044:1,2005-05-20T16:00:00Z,26.1914,-97.0507,2.0,34.41,11111222 
TABS,ioos:station:wmo:42044:1,2005-05-20T16:30:00Z,26.1914,-97.0507,2.0,34.44,11111222 
TABS,ioos:station:wmo:42044:1,2005-05-20T17:00:00Z,26.1914,-97.0507,2.0,34.34,11111222 
TABS,ioos:station:wmo:42044:1,2005-05-20T17:30:00Z,26.1914,-97.0507,2.0,34.32,11111222 
TABS,ioos:station:wmo:42044:1,2005-05-20T18:00:00Z,26.1914,-97.0507,2.0,34.29,11111222 
TABS,ioos:station:wmo:42044:1,2005-05-20T18:30:00Z,26.1914,-97.0507,2.0,34.3,11111222 
TABS,ioos:station:wmo:42044:1,2005-05-20T19:00:00Z,26.1914,-97.0507,2.0,34.31,11111222 
TABS,ioos:station:wmo:42044:1,2005-05-20T19:30:00Z,26.1914,-97.0507,2.0,34.3,11111222 
TABS,ioos:station:wmo:42044:1,2005-05-20T20:00:00Z,26.1914,-97.0507,2.0,34.38,11111222 
TABS,ioos:station:wmo:42044:1,2005-05-20T20:30:00Z,26.1914,-97.0507,2.0,34.27,11111222 
TABS,ioos:station:wmo:42044:1,2005-05-20T21:00:00Z,26.1914,-97.0507,2.0,34.29,11111222 
TABS,ioos:station:wmo:42044:1,2005-05-20T21:30:00Z,26.1914,-97.0507,2.0,34.28,11111222 
TABS,ioos:station:wmo:42044:1,2005-05-20T22:00:00Z,26.1914,-97.0507,2.0,34.21,11111222 
TABS,ioos:station:wmo:42044:1,2005-05-20T22:30:00Z,26.1914,-97.0507,2.0,34.24,11111222 
TABS,ioos:station:wmo:42044:1,2005-05-20T23:00:00Z,26.1914,-97.0507,2.0,34.28,11111222 
TABS,ioos:station:wmo:42044:1,2005-05-20T23:30:00Z,26.1914,-97.0507,2.0,34.29,11111222 
TABS,ioos:station:wmo:42044:1,2005-05-21T00:00:00Z,26.1914,-97.0507,2.0,34.24,11111222 
TABS,ioos:station:wmo:42044:1,2005-05-21T00:30:00Z,26.1914,-97.0507,2.0,34.23,11111222 
TABS,ioos:station:wmo:42044:1,2005-05-21T01:00:00Z,26.1914,-97.0507,2.0,34.28,11111222 
TABS,ioos:station:wmo:42044:1,2005-05-21T01:30:00Z,26.1914,-97.0507,2.0,34.24,11111222 
TABS,ioos:station:wmo:42044:1,2005-05-21T02:00:00Z,26.1914,-97.0507,2.0,34.22,11111222 
TABS,ioos:station:wmo:42044:1,2005-05-21T02:30:00Z,26.1914,-97.0507,2.0,34.21,11111222 
TABS,ioos:station:wmo:42044:1,2005-05-21T03:00:00Z,26.1914,-97.0507,2.0,34.22,11111222 
TABS,ioos:station:wmo:42044:1,2005-05-21T03:30:00Z,26.1914,-97.0507,2.0,34.22,11111222 
TABS,ioos:station:wmo:42044:1,2005-05-21T04:00:00Z,26.1914,-97.0507,2.0,34.22,11111222 
TABS,ioos:station:wmo:42044:1,2005-05-21T04:30:00Z,26.1914,-97.0507,2.0,34.23,11111222 
TABS,ioos:station:wmo:42044:1,2005-05-21T05:00:00Z,26.1914,-97.0507,2.0,34.23,11111222 
TABS,ioos:station:wmo:42044:1,2005-05-21T05:30:00Z,26.1914,-97.0507,2.0,34.25,11111222 
TABS,ioos:station:wmo:42044:1,2005-05-21T06:00:00Z,26.1914,-97.0507,2.0,34.23,11111222 
TABS,ioos:station:wmo:42044:1,2005-05-21T06:30:00Z,26.1914,-97.0507,2.0,34.24,11111222 
TABS,ioos:station:wmo:42044:1,2005-05-21T07:00:00Z,26.1914,-97.0507,2.0,34.25,11111222 
TABS,ioos:station:wmo:42044:1,2005-05-21T07:30:00Z,26.1914,-97.0507,2.0,34.25,11111222 
TABS,ioos:station:wmo:42044:1,2005-05-21T08:00:00Z,26.1914,-97.0507,2.0,34.25,11111222 
TABS,ioos:station:wmo:42044:1,2005-05-21T08:30:00Z,26.1914,-97.0507,2.0,34.24,11111222 
TABS,ioos:station:wmo:42044:1,2005-05-21T09:00:00Z,26.1914,-97.0507,2.0,34.27,11111222 
TABS,ioos:station:wmo:42044:1,2005-05-21T09:30:00Z,26.1914,-97.0507,2.0,34.26,11111222 
TABS,ioos:station:wmo:42044:1,2005-05-21T10:00:00Z,26.1914,-97.0507,2.0,34.28,11111222 
TABS,ioos:station:wmo:42044:1,2005-05-21T10:30:00Z,26.1914,-97.0507,2.0,34.26,11111222 
TABS,ioos:station:wmo:42044:1,2005-05-21T11:00:00Z,26.1914,-97.0507,2.0,34.25,11111222 
TABS,ioos:station:wmo:42044:1,2005-05-21T11:30:00Z,26.1914,-97.0507,2.0,34.24,11111222 
TABS,ioos:station:wmo:42044:1,2005-05-21T12:00:00Z,26.1914,-97.0507,2.0,34.23,11111222 
TABS,ioos:station:wmo:42044:1,2005-05-21T12:30:00Z,26.1914,-97.0507,2.0,34.24,11111222 
TABS,ioos:station:wmo:42044:1,2005-05-21T13:00:00Z,26.1914,-97.0507,2.0,34.24,11111222 
TABS,ioos:station:wmo:42044:1,2005-05-21T13:30:00Z,26.1914,-97.0507,2.0,34.24,11111222 
TABS,ioos:station:wmo:42044:1,2005-05-21T14:00:00Z,26.1914,-97.0507,2.0,34.24,11111222 
TABS,ioos:station:wmo:42044:1,2005-05-21T14:30:00Z,26.1914,-97.0507,2.0,34.24,11111222 
TABS,ioos:station:wmo:42044:1,2005-05-21T15:00:00Z,26.1914,-97.0507,2.0,34.22,11111222 
TABS,ioos:station:wmo:42044:1,2005-05-21T15:30:00Z,26.1914,-97.0507,2.0,34.23,11111222 
TABS,ioos:station:wmo:42044:1,2005-05-21T16:00:00Z,26.1914,-97.0507,2.0,34.2,11111222 
TABS,ioos:station:wmo:42044:1,2005-05-21T16:30:00Z,26.1914,-97.0507,2.0,34.39,11111222 
TABS,ioos:station:wmo:42044:1,2005-05-21T17:00:00Z,26.1914,-97.0507,2.0,34.13,11111222 
TABS,ioos:station:wmo:42044:1,2005-05-21T17:30:00Z,26.1914,-97.0507,2.0,34.04,11111222 
TABS,ioos:station:wmo:42044:1,2005-05-21T18:00:00Z,26.1914,-97.0507,2.0,33.97,11111222 
TABS,ioos:station:wmo:42044:1,2005-05-21T18:30:00Z,26.1914,-97.0507,2.0,34.0,11111222 
TABS,ioos:station:wmo:42044:1,2005-05-21T19:00:00Z,26.1914,-97.0507,2.0,34.05,11111222 
TABS,ioos:station:wmo:42044:1,2005-05-21T19:30:00Z,26.1914,-97.0507,2.0,34.04,11111222 
TABS,ioos:station:wmo:42044:1,2005-05-21T20:00:00Z,26.1914,-97.0507,2.0,34.01,11111222 
TABS,ioos:station:wmo:42044:1,2005-05-21T20:30:00Z,26.1914,-97.0507,2.0,34.04,11111222 
TABS,ioos:station:wmo:42044:1,2005-05-21T21:00:00Z,26.1914,-97.0507,2.0,34.04,11111222 
TABS,ioos:station:wmo:42044:1,2005-05-21T21:30:00Z,26.1914,-97.0507,2.0,34.05,11111222 
TABS,ioos:station:wmo:42044:1,2005-05-21T22:00:00Z,26.1914,-97.0507,2.0,34.04,11111222 
TABS,ioos:station:wmo:42044:1,2005-05-21T22:30:00Z,26.1914,-97.0507,2.0,34.06,11111222 
TABS,ioos:station:wmo:42044:1,2005-05-21T23:00:00Z,26.1914,-97.0507,2.0,34.07,11111222 
TABS,ioos:station:wmo:42044:1,2005-05-21T23:30:00Z,26.1914,-97.0507,2.0,34.05,11111222 
TABS,ioos:station:wmo:42044:1,2005-05-22T00:00:00Z,26.1914,-97.0507,2.0,34.09,11111222 
TABS,ioos:station:wmo:42044:1,2005-05-22T00:30:00Z,26.1914,-97.0507,2.0,34.12,11111222 
TABS,ioos:station:wmo:42044:1,2005-05-22T01:00:00Z,26.1914,-97.0507,2.0,34.12,11111222 
TABS,ioos:station:wmo:42044:1,2005-05-22T01:30:00Z,26.1914,-97.0507,2.0,34.12,11111222 
TABS,ioos:station:wmo:42044:1,2005-05-22T02:00:00Z,26.1914,-97.0507,2.0,34.12,11111222 
TABS,ioos:station:wmo:42044:1,2005-05-22T02:30:00Z,26.1914,-97.0507,2.0,34.12,11111222 
TABS,ioos:station:wmo:42044:1,2005-05-22T03:00:00Z,26.1914,-97.0507,2.0,34.12,11111222 
TABS,ioos:station:wmo:42044:1,2005-05-22T03:30:00Z,26.1914,-97.0507,2.0,34.12,11111222 
TABS,ioos:station:wmo:42044:1,2005-05-22T04:00:00Z,26.1914,-97.0507,2.0,34.1,11111222 
TABS,ioos:station:wmo:42044:1,2005-05-22T04:30:00Z,26.1914,-97.0507,2.0,34.1,11111222 
TABS,ioos:station:wmo:42044:1,2005-05-22T05:00:00Z,26.1914,-97.0507,2.0,34.07,11111222 
TABS,ioos:station:wmo:42044:1,2005-05-22T05:30:00Z,26.1914,-97.0507,2.0,34.07,11111222 
TABS,ioos:station:wmo:42044:1,2005-05-22T06:00:00Z,26.1914,-97.0507,2.0,34.07,11111222 
TABS,ioos:station:wmo:42044:1,2005-05-22T06:30:00Z,26.1914,-97.0507,2.0,34.06,11111222 
TABS,ioos:station:wmo:42044:1,2005-05-22T07:00:00Z,26.1914,-97.0507,2.0,34.06,11111222 
TABS,ioos:station:wmo:42044:1,2005-05-22T07:30:00Z,26.1914,-97.0507,2.0,34.05,11111222 
TABS,ioos:station:wmo:42044:1,2005-05-22T08:00:00Z,26.1914,-97.0507,2.0,34.06,11111222 
TABS,ioos:station:wmo:42044:1,2005-05-22T08:30:00Z,26.1914,-97.0507,2.0,34.06,11111222 
TABS,ioos:station:wmo:42044:1,2005-05-22T09:00:00Z,26.1914,-97.0507,2.0,34.06,11111222 
TABS,ioos:station:wmo:42044:1,2005-05-22T09:30:00Z,26.1914,-97.0507,2.0,34.06,11111222 
TABS,ioos:station:wmo:42044:1,2005-05-22T10:00:00Z,26.1914,-97.0507,2.0,34.06,11111222 
TABS,ioos:station:wmo:42044:1,2005-05-22T10:30:00Z,26.1914,-97.0507,2.0,34.06,11111222 
TABS,ioos:station:wmo:42044:1,2005-05-22T11:00:00Z,26.1914,-97.0507,2.0,34.06,11111222 
TABS,ioos:station:wmo:42044:1,2005-05-22T11:30:00Z,26.1914,-97.0507,2.0,34.06,11111222 
TABS,ioos:station:wmo:42044:1,2005-05-22T12:00:00Z,26.1914,-97.0507,2.0,34.06,11111222 
TABS,ioos:station:wmo:42044:1,2005-05-22T12:30:00Z,26.1914,-97.0507,2.0,34.05,11111222 
TABS,ioos:station:wmo:42044:1,2005-05-22T13:00:00Z,26.1914,-97.0507,2.0,34.05,11111222 
TABS,ioos:station:wmo:42044:1,2005-05-22T13:30:00Z,26.1914,-97.0507,2.0,34.05,11111222 
TABS,ioos:station:wmo:42044:1,2005-05-22T14:00:00Z,26.1914,-97.0507,2.0,34.04,11111222 
TABS,ioos:station:wmo:42044:1,2005-05-22T14:30:00Z,26.1914,-97.0507,2.0,34.04,11111222 
TABS,ioos:station:wmo:42044:1,2005-05-22T15:00:00Z,26.1914,-97.0507,2.0,34.04,11111222 
TABS,ioos:station:wmo:42044:1,2005-05-22T15:30:00Z,26.1914,-97.0507,2.0,34.04,11111222 
TABS,ioos:station:wmo:42044:1,2005-05-22T16:00:00Z,26.1914,-97.0507,2.0,34.03,11111222 
TABS,ioos:station:wmo:42044:1,2005-05-22T16:30:00Z,26.1914,-97.0507,2.0,34.02,11111222 
TABS,ioos:station:wmo:42044:1,2005-05-22T17:00:00Z,26.1914,-97.0507,2.0,34.02,11111222 
TABS,ioos:station:wmo:42044:1,2005-05-22T17:30:00Z,26.1914,-97.0507,2.0,34.02,11111222 
TABS,ioos:station:wmo:42044:1,2005-05-22T18:00:00Z,26.1914,-97.0507,2.0,34.07,11111222 
TABS,ioos:station:wmo:42044:1,2005-05-22T18:30:00Z,26.1914,-97.0507,2.0,34.02,11111222 
TABS,ioos:station:wmo:42044:1,2005-05-22T19:00:00Z,26.1914,-97.0507,2.0,33.98,11111222 
TABS,ioos:station:wmo:42044:1,2005-05-22T19:30:00Z,26.1914,-97.0507,2.0,34.01,11111222 
TABS,ioos:station:wmo:42044:1,2005-05-22T20:00:00Z,26.1914,-97.0507,2.0,34.05,11111222 
TABS,ioos:station:wmo:42044:1,2005-05-22T20:30:00Z,26.1914,-97.0507,2.0,33.99,11111222 
TABS,ioos:station:wmo:42044:1,2005-05-22T21:00:00Z,26.1914,-97.0507,2.0,33.99,11111222 
TABS,ioos:station:wmo:42044:1,2005-05-22T21:30:00Z,26.1914,-97.0507,2.0,33.98,11111222 
TABS,ioos:station:wmo:42044:1,2005-05-22T22:00:00Z,26.1914,-97.0507,2.0,33.94,11111222 
TABS,ioos:station:wmo:42044:1,2005-05-22T22:30:00Z,26.1914,-97.0507,2.0,33.96,11111222 
TABS,ioos:station:wmo:42044:1,2005-05-22T23:00:00Z,26.1914,-97.0507,2.0,33.97,11111222 
TABS,ioos:station:wmo:42044:1,2005-05-22T23:30:00Z,26.1914,-97.0507,2.0,33.96,11111222 
TABS,ioos:station:wmo:42044:1,2005-05-23T00:00:00Z,26.1914,-97.0507,2.0,33.97,11111222 
TABS,ioos:station:wmo:42044:1,2005-05-23T00:30:00Z,26.1914,-97.0507,2.0,33.97,11111222 
TABS,ioos:station:wmo:42044:1,2005-05-23T01:00:00Z,26.1914,-97.0507,2.0,33.97,11111222 
TABS,ioos:station:wmo:42044:1,2005-05-23T01:30:00Z,26.1914,-97.0507,2.0,33.97,11111222 
TABS,ioos:station:wmo:42044:1,2005-05-23T02:00:00Z,26.1914,-97.0507,2.0,33.97,11111222 
TABS,ioos:station:wmo:42044:1,2005-05-23T02:30:00Z,26.1914,-97.0507,2.0,33.97,11111222 
TABS,ioos:station:wmo:42044:1,2005-05-23T03:00:00Z,26.1914,-97.0507,2.0,33.97,11111222 